FW5461 Weather Reports


Display with metric or nautical units.
time (UTC)temp
F
wind
direction
speed
MPH
gust
MPH
rain 1hr
in
rain 24hr
in
rain mn
in
humidity
%
barometer
mb
20260506174601 62 360 6.0 13.0 0.03 0.03 0.03 83 1009.0
20260506174103 63 360 6.0 15.0 0.03 0.03 0.03 82 1009.2
20260506173603 63 360 4.0 15.0 0.03 0.03 0.03 82 1009.1
20260506173100 63 360 5.0 11.0 0.02 0.02 0.02 81 1009.0
20260506172600 64 360 6.0 11.0 0.02 0.02 0.02 80 1009.3
20260506172057 64 360 5.0 12.0 0.01 0.01 0.01 79 1009.6
20260506171607 65 360 6.0 13.0 0.00 0.00 0.00 78 1009.6
20260506171058 65 360 5.0 13.0 0.00 0.00 0.00 76 1009.8
20260506170556 66 360 6.0 13.0 0.00 0.00 0.00 75 1009.9
20260506170058 66 360 6.0 16.0 0.00 0.00 0.00 74 1009.9
20260506165555 67 360 8.0 16.0 0.00 0.00 0.00 72 1009.9
20260506165055 67 360 5.0 14.0 0.00 0.00 0.00 72 1009.8
20260506164555 67 360 8.0 15.0 0.00 0.00 0.00 70 1009.7
20260506164055 67 360 8.0 15.0 0.00 0.00 0.00 69 1009.7
20260506163554 68 360 5.0 14.0 0.00 0.00 0.00 69 1009.7
20260506163057 68 360 5.0 19.0 0.00 0.00 0.00 69 1009.6
20260506162554 68 360 9.0 19.0 0.00 0.00 0.00 67 1009.6
20260506162058 68 360 8.0 14.0 0.00 0.00 0.00 67 1009.6
20260506161554 68 360 4.0 14.0 0.00 0.00 0.00 67 1009.6
20260506161052 68 360 5.0 14.0 0.00 0.00 0.00 68 1009.7
20260506160551 68 360 6.0 13.0 0.00 0.00 0.00 68 1009.7
20260506160100 68 360 5.0 12.0 0.00 0.00 0.00 69 1009.9
20260506155548 67 360 3.0 8.0 0.00 0.00 0.00 70 1010.2
20260506155047 67 360 2.0 6.0 0.00 0.00 0.00 71 1010.2
20260506154546 67 360 2.0 6.0 0.00 0.00 0.00 71 1010.3
20260506154048 67 360 3.0 6.0 0.00 0.00 0.00 71 1010.3
20260506153545 67 360 1.0 5.0 0.00 0.00 0.00 71 1010.4
20260506153044 67 360 2.0 6.0 0.00 0.00 0.00 71 1010.4
20260506152544 66 360 4.0 9.0 0.00 0.00 0.00 72 1010.5
20260506152044 66 360 3.0 9.0 0.00 0.00 0.00 72 1010.6
20260506151543 66 360 3.0 8.0 0.00 0.00 0.00 72 1010.7
20260506151040 66 360 3.0 8.0 0.00 0.00 0.00 73 1010.8
20260506150539 66 360 3.0 8.0 0.00 0.00 0.00 73 1010.8
20260506150038 65 360 3.0 8.0 0.00 0.00 0.00 74 1010.8
20260506145537 65 360 2.0 8.0 0.00 0.00 0.00 74 1010.9
20260506145035 65 360 4.0 11.0 0.00 0.00 0.00 75 1010.9
20260506144548 64 360 5.0 11.0 0.00 0.00 0.00 75 1010.9
20260506144035 64 360 6.0 11.0 0.00 0.00 0.00 75 1010.9
20260506143534 64 360 4.0 10.0 0.00 0.00 0.00 75 1010.9
20260506143035 64 360 4.0 11.0 0.00 0.00 0.00 75 1010.9
20260506142532 64 360 3.0 11.0 0.00 0.00 0.00 76 1011.0
20260506142031 64 360 4.0 9.0 0.00 0.00 0.00 76 1010.9
20260506141530 63 360 5.0 9.0 0.00 0.00 0.00 76 1011.0
20260506141030 63 360 5.0 9.0 0.00 0.00 0.00 76 1010.9
20260506140530 63 360 6.0 13.0 0.00 0.00 0.00 76 1010.9
20260506140033 63 360 6.0 13.0 0.00 0.00 0.00 77 1010.9
20260506135530 63 360 2.0 11.0 0.00 0.00 0.00 77 1011.0
20260506135027 63 360 4.0 11.0 0.00 0.00 0.00 77 1010.8
20260506134528 62 360 5.0 10.0 0.00 0.00 0.00 78 1010.8
20260506134027 62 360 5.0 11.0 0.00 0.00 0.00 78 1010.7
20260506133523 62 360 5.0 13.0 0.00 0.00 0.00 79 1010.7
20260506133029 61 360 7.0 13.0 0.00 0.00 0.00 79 1010.7
20260506132521 61 360 6.0 11.0 0.00 0.00 0.00 79 1010.9
20260506132022 61 360 6.0 12.0 0.00 0.00 0.00 79 1010.8
20260506131522 61 360 5.0 12.0 0.00 0.00 0.00 79 1010.8
20260506131023 61 360 6.0 11.0 0.00 0.00 0.00 79 1010.8
20260506130520 61 360 3.0 10.0 0.00 0.00 0.00 80 1011.0
20260506130019 61 360 4.0 10.0 0.00 0.00 0.00 80 1011.0
20260506125518 61 360 4.0 10.0 0.00 0.00 0.00 80 1011.0
20260506125018 61 360 4.0 10.0 0.00 0.00 0.00 80 1010.8
20260506124521 60 360 1.0 10.0 0.00 0.00 0.00 81 1010.8
20260506124017 60 360 2.0 10.0 0.00 0.00 0.00 81 1011.1
20260506123515 60 360 2.0 6.0 0.00 0.00 0.00 82 1011.3
20260506123015 60 360 1.0 6.0 0.00 0.00 0.00 82 1011.4
20260506122515 60 360 3.0 6.0 0.00 0.00 0.00 82 1011.4
20260506122016 59 360 2.0 4.0 0.00 0.00 0.00 83 1011.4
20260506121513 59 360 0.0 9.0 0.00 0.00 0.00 83 1011.3
20260506121014 59 360 3.0 9.0 0.00 0.00 0.00 83 1011.4
20260506120513 59 360 4.0 8.0 0.00 0.00 0.00 83 1011.4
20260506120013 58 360 0.0 6.0 0.00 0.00 0.00 84 1011.3
20260506115511 58 360 2.0 6.0 0.00 0.00 0.00 84 1011.4
20260506115012 58 360 2.0 5.0 0.00 0.00 0.00 84 1011.5
20260506114529 58 360 1.0 4.0 0.00 0.00 0.00 84 1011.5
20260506114010 58 360 0.0 5.0 0.00 0.00 0.00 84 1011.4
20260506113509 58 360 2.0 5.0 0.00 0.00 0.00 84 1011.6
20260506113009 58 360 0.0 4.0 0.00 0.00 0.00 85 1011.5
20260506112512 57 360 2.0 8.0 0.00 0.00 0.00 85 1011.7
20260506112010 57 360 3.0 8.0 0.00 0.00 0.00 85 1011.5
20260506111508 57 360 0.0 3.0 0.00 0.00 0.00 85 1011.5
20260506111010 57 360 0.0 3.0 0.00 0.00 0.00 86 1011.5
20260506110510 57 360 0.0 3.0 0.00 0.00 0.00 86 1011.4
20260506110008 56 360 0.0 4.0 0.00 0.00 0.00 86 1011.6
20260506105505 56 360 1.0 4.0 0.00 0.00 0.00 86 1011.9
20260506105006 56 360 0.0 4.0 0.00 0.00 0.00 85 1011.8
20260506104504 55 360 0.0 4.0 0.00 0.00 0.00 85 1011.7
20260506104103 55 360 0.0 2.0 0.00 0.00 0.00 85 1011.6
20260506103505 55 360 0.0 1.0 0.00 0.00 0.00 85 1011.9
20260506103001 55 360 0.0 1.0 0.00 0.00 0.00 85 1011.9
20260506102603 55 360 0.0 1.0 0.00 0.00 0.00 85 1011.8
20260506102100 55 360 0.0 1.0 0.00 0.00 0.00 85 1011.7
20260506101600 55 360 0.0 2.0 0.00 0.00 0.00 85 1011.5
20260506101058 55 360 0.0 2.0 0.00 0.00 0.00 85 1011.4
20260506100557 55 360 0.0 3.0 0.00 0.00 0.00 84 1011.3
20260506100111 55 360 1.0 3.0 0.00 0.00 0.00 84 1011.4
20260506095558 55 360 0.0 3.0 0.00 0.00 0.00 84 1011.4
20260506095057 55 360 0.0 2.0 0.00 0.00 0.00 84 1011.3
20260506094554 55 360 0.0 4.0 0.00 0.00 0.00 83 1011.2
20260506094052 55 360 0.0 4.0 0.00 0.00 0.00 83 1011.2
20260506093554 55 360 1.0 3.0 0.00 0.00 0.00 83 1011.4
20260506093055 55 360 0.0 2.0 0.00 0.00 0.00 83 1011.4
20260506092553 56 360 0.0 1.0 0.00 0.00 0.00 83 1011.3
20260506092051 56 360 0.0 2.0 0.00 0.00 0.00 83 1011.3
20260506091554 56 360 0.0 2.0 0.00 0.00 0.00 83 1011.2
20260506091049 56 360 0.0 3.0 0.00 0.00 0.00 83 1011.3
20260506090550 56 360 0.0 4.0 0.00 0.00 0.00 83 1011.3
20260506090050 56 360 1.0 5.0 0.00 0.00 0.00 83 1011.4
20260506085548 56 360 2.0 5.0 0.00 0.00 0.00 82 1011.4
20260506085048 56 360 1.0 4.0 0.00 0.00 0.00 82 1011.4
20260506084548 56 360 0.0 3.0 0.00 0.00 0.00 82 1011.5
20260506084048 56 360 0.0 2.0 0.00 0.00 0.00 82 1011.4
20260506083547 56 360 0.0 3.0 0.00 0.00 0.00 82 1011.4
20260506083048 56 360 0.0 3.0 0.00 0.00 0.00 81 1011.7
20260506082546 57 360 0.0 3.0 0.00 0.00 0.00 81 1011.6
20260506082046 57 360 0.0 2.0 0.00 0.00 0.00 81 1011.7
20260506081548 57 360 0.0 2.0 0.00 0.00 0.00 80 1011.5
20260506081045 57 360 0.0 2.0 0.00 0.00 0.00 80 1011.5
20260506080545 57 360 0.0 1.0 0.00 0.00 0.00 80 1011.5
20260506073041 57 360 0.0 4.0 0.00 0.00 0.00 78 1011.3
20260506072541 57 360 1.0 3.0 0.00 0.00 0.00 77 1011.4
20260506072041 57 360 0.0 3.0 0.00 0.00 0.00 77 1011.4
20260506071539 58 360 0.0 0.0 0.00 0.00 0.00 76 1011.3
20260506071038 58 360 0.0 1.0 0.00 0.00 0.00 76 1011.3
20260506070541 58 360 0.0 1.0 0.00 0.00 0.00 76 1011.3
20260506062037 59 360 0.0 2.0 0.00 0.00 0.00 75 1011.0
20260506061534 59 360 0.0 2.0 0.00 0.00 0.00 74 1011.1
20260506061037 59 360 0.0 2.0 0.00 0.00 0.00 74 1011.2
20260506060532 59 360 0.0 1.0 0.00 0.00 0.00 74 1011.1
20260506051027 60 360 1.0 4.0 0.00 0.00 0.00 72 1011.3
20260506050528 60 360 2.0 4.0 0.00 0.00 0.00 72 1011.3
20260506045026 60 360 0.0 2.0 0.00 0.00 0.00 71 1011.3
20260506044531 60 360 0.0 2.0 0.00 0.00 0.00 71 1011.3
20260506044024 60 360 0.0 0.0 0.00 0.00 0.00 71 1011.4
20260506043524 61 360 0.0 0.0 0.00 0.00 0.00 71 1011.4
20260506043026 61 360 0.0 1.0 0.00 0.00 0.00 70 1011.4
20260506042526 61 360 0.0 1.0 0.00 0.00 0.00 70 1011.3
20260506042024 61 360 0.0 2.0 0.00 0.00 0.00 70 1011.4
20260506041525 61 360 0.0 3.0 0.00 0.00 0.00 69 1011.3
20260506041021 61 360 0.0 3.0 0.00 0.00 0.00 69 1011.4
20260506040524 61 360 1.0 3.0 0.00 0.00 0.00 69 1011.4
20260506040020 61 360 1.0 3.0 0.00 0.00 0.00 68 1011.3
20260506035524 61 360 1.0 5.0 0.00 0.00 0.00 68 1011.4
20260506035019 62 360 1.0 5.0 0.00 0.00 0.00 68 1011.3
20260506034520 62 360 0.0 5.0 0.00 0.00 0.00 67 1011.3
20260506034020 62 360 1.0 5.0 0.00 0.00 0.00 67 1011.5
20260506033518 62 360 1.0 4.0 0.00 0.00 0.00 67 1011.4
20260506033026 62 360 1.0 5.0 0.00 0.00 0.00 66 1011.4
20260506032518 62 360 0.0 5.0 0.00 0.00 0.00 66 1011.4
20260506032018 62 360 1.0 6.0 0.00 0.00 0.00 66 1011.5
20260506031529 63 360 1.0 6.0 0.00 0.00 0.00 66 1011.4
20260506031019 63 360 2.0 8.0 0.00 0.00 0.00 65 1011.4
20260506030523 63 360 3.0 9.0 0.00 0.00 0.00 65 1011.6
20260506030041 63 360 3.0 9.0 0.00 0.00 0.00 65 1011.4
20260506025517 63 360 4.0 8.0 0.00 0.00 0.00 65 1011.5
20260506025019 63 360 2.0 8.0 0.00 0.00 0.00 65 1011.5
20260506024525 63 360 2.0 8.0 0.00 0.00 0.00 65 1011.4
20260506024017 64 360 3.0 6.0 0.00 0.00 0.00 64 1011.5
20260506023517 64 360 3.0 6.0 0.00 0.00 0.00 64 1011.3
20260506023016 64 360 2.0 6.0 0.00 0.00 0.00 64 1011.3
20260506022516 64 360 3.0 8.0 0.00 0.00 0.00 64 1011.3
20260506022016 64 360 4.0 9.0 0.00 0.00 0.00 64 1011.2
20260506021516 64 360 4.0 12.0 0.00 0.00 0.00 64 1011.2
20260506021016 64 360 3.0 12.0 0.00 0.00 0.00 63 1011.2
20260506020522 65 360 6.0 10.0 0.00 0.00 0.00 63 1011.0
20260506020016 65 360 4.0 9.0 0.00 0.00 0.00 63 1011.0
20260506015517 65 360 4.0 9.0 0.00 0.00 0.00 63 1010.9
20260506015015 65 360 3.0 9.0 0.00 0.00 0.00 63 1011.0
20260506014514 65 360 4.0 9.0 0.00 0.00 0.00 62 1011.1
20260506014014 66 360 2.0 8.0 0.00 0.00 0.00 62 1011.0
20260506013514 66 360 2.0 10.0 0.00 0.00 0.00 62 1011.0
20260506013015 66 360 4.0 10.0 0.00 0.00 0.00 61 1010.9
20260506012514 66 360 4.0 12.0 0.00 0.00 0.00 61 1010.8
20260506012014 66 360 5.0 12.0 0.00 0.00 0.00 61 1010.8
20260506011522 67 360 4.0 11.0 0.00 0.00 0.00 60 1010.8
20260506011015 67 360 4.0 10.0 0.00 0.00 0.00 60 1010.6
20260506010514 67 360 6.0 13.0 0.00 0.00 0.00 60 1010.5
20260506010014 67 360 5.0 9.0 0.00 0.00 0.00 60 1010.5
20260506005513 68 360 4.0 10.0 0.00 0.00 0.00 59 1010.4
20260506005012 68 360 5.0 11.0 0.00 0.00 0.00 59 1010.4
20260506004524 68 360 4.0 11.0 0.00 0.00 0.00 59 1010.5
20260506004012 68 360 4.0 8.0 0.00 0.00 0.00 58 1010.4
20260506003512 69 360 3.0 9.0 0.00 0.00 0.00 58 1010.3
20260506003012 69 360 5.0 9.0 0.00 0.00 0.00 57 1010.3
20260506002511 69 360 3.0 8.0 0.00 0.00 0.00 57 1010.2
20260506002014 69 360 3.0 8.0 0.00 0.00 0.00 57 1010.0
20260506001512 69 360 3.0 10.0 0.00 0.00 0.00 57 1009.9
20260506001011 69 360 5.0 11.0 0.00 0.00 0.00 56 1009.9
20260506000513 70 360 6.0 11.0 0.00 0.00 0.00 56 1009.8
20260506000017 70 360 7.0 12.0 0.00 0.00 0.00 56 1009.7
20260505235510 70 360 7.0 12.0 0.00 0.00 0.00 56 1009.6
20260505235011 70 360 5.0 13.0 0.00 0.00 0.00 55 1009.4
20260505234510 70 360 8.0 13.0 0.00 0.00 0.00 55 1009.3
20260505234009 70 360 5.0 16.0 0.00 0.00 0.00 55 1009.3
20260505233512 71 360 6.0 21.0 0.00 0.00 0.00 55 1009.2
20260505233009 71 360 6.0 21.0 0.00 0.00 0.00 54 1009.2
20260505232509 71 360 8.0 21.0 0.00 0.00 0.00 54 1009.1
20260505232009 71 360 8.0 14.0 0.00 0.00 0.00 54 1008.9
20260505231511 72 360 8.0 15.0 0.00 0.00 0.00 53 1008.9
20260505231012 72 360 8.0 15.0 0.00 0.00 0.00 52 1008.9
20260505230509 72 360 8.0 17.0 0.00 0.00 0.00 52 1008.8
20260505230012 73 360 8.0 17.0 0.00 0.00 0.00 51 1008.8
20260505225509 73 360 7.0 15.0 0.00 0.00 0.00 51 1008.8
20260505225011 73 360 5.0 18.0 0.00 0.00 0.00 50 1008.7
20260505224508 74 360 8.0 18.0 0.00 0.00 0.00 50 1008.6
20260505224007 74 122 10.0 21.0 0.00 0.00 0.00 49 1008.5
20260505223507 75 128 11.0 21.0 0.00 0.00 0.00 48 1008.4
20260505223007 75 142 7.0 24.0 0.00 0.00 0.00 48 1008.2
20260505222507 75 158 11.0 24.0 0.00 0.00 0.00 48 1008.2
20260505222107 76 131 10.0 21.0 0.00 0.00 0.00 47 1008.1
20260505221507 76 163 9.0 20.0 0.00 0.00 0.00 47 1008.1
20260505221006 76 173 10.0 26.0 0.00 0.00 0.00 46 1008.1
20260505220510 77 212 13.0 26.0 0.00 0.00 0.00 45 1008.1
20260505220008 77 181 13.0 22.0 0.00 0.00 0.00 45 1008.0
20260505215505 77 173 11.0 26.0 0.00 0.00 0.00 45 1008.1
20260505215005 78 150 12.0 26.0 0.00 0.00 0.00 44 1007.9
20260505214505 78 157 9.0 22.0 0.00 0.00 0.00 44 1007.9
20260505214005 78 223 13.0 23.0 0.00 0.00 0.00 44 1007.8
20260505213508 78 173 10.0 22.0 0.00 0.00 0.00 44 1007.8
20260505213123 78 168 11.0 25.0 0.00 0.00 0.00 44 1007.8
20260505212504 78 159 10.0 24.0 0.00 0.00 0.00 45 1007.7
20260505212005 78 148 13.0 25.0 0.00 0.00 0.00 44 1007.7
20260505211503 78 164 10.0 22.0 0.00 0.00 0.00 44 1007.7
20260505211003 78 138 13.0 22.0 0.00 0.00 0.00 44 1007.8
20260505210502 79 169 9.0 24.0 0.00 0.00 0.00 44 1007.7
20260505210002 79 167 14.0 24.0 0.00 0.00 0.00 43 1007.8
20260505205502 79 158 11.0 24.0 0.00 0.00 0.00 43 1007.6
20260505205002 80 134 11.0 21.0 0.00 0.00 0.00 42 1007.8
20260505204502 80 181 11.0 23.0 0.00 0.00 0.00 42 1007.7
20260505204001 80 169 11.0 23.0 0.00 0.00 0.00 40 1007.5
20260505203503 81 162 10.0 20.0 0.00 0.00 0.00 40 1007.5
20260505203006 81 173 10.0 21.0 0.00 0.00 0.00 38 1007.5
20260505202501 81 190 12.0 22.0 0.00 0.00 0.00 37 1007.6
20260505202002 81 143 7.0 23.0 0.00 0.00 0.00 38 1007.6
20260505201601 81 360 15.0 23.0 0.00 0.00 0.00 38 1007.6
20260505201102 81 360 10.0 22.0 0.00 0.00 0.00 38 1007.7
20260505200600 81 360 14.0 22.0 0.00 0.00 0.00 38 1007.7
20260505200100 81 207 10.0 22.0 0.00 0.00 0.00 39 1007.8
20260505195602 80 183 12.0 23.0 0.00 0.00 0.00 41 1007.7
20260505195102 80 182 8.0 23.0 0.00 0.00 0.00 43 1007.8
20260505194601 79 184 9.0 24.0 0.00 0.00 0.00 43 1007.8
20260505194100 80 147 9.0 29.0 0.00 0.00 0.00 42 1007.8
20260505193559 80 360 16.0 29.0 0.00 0.00 0.00 41 1007.6
20260505193125 81 119 8.0 26.0 0.00 0.00 0.00 42 1007.7
20260505192557 80 160 12.0 28.0 0.00 0.00 0.00 41 1007.9
20260505192057 81 178 13.0 28.0 0.00 0.00 0.00 40 1008.0
20260505191605 82 192 9.0 25.0 0.00 0.00 0.00 39 1007.9
20260505191057 82 131 10.0 25.0 0.00 0.00 0.00 38 1007.9
20260505190555 81 43 8.0 24.0 0.00 0.00 0.00 40 1008.0
20260505190055 82 182 13.0 24.0 0.00 0.00 0.00 39 1008.1
20260505185554 83 133 8.0 21.0 0.00 0.00 0.00 37 1008.2
20260505185053 84 225 5.0 27.0 0.00 0.00 0.00 30 1008.3
20260505184555 84 186 11.0 27.0 0.00 0.00 0.00 30 1008.3
20260505184050 84 229 11.0 25.0 0.00 0.00 0.00 30 1008.3
20260505183550 83 183 12.0 25.0 0.00 0.00 0.00 31 1008.3
20260505183048 83 198 13.0 26.0 0.00 0.00 0.00 31 1008.3
20260505182546 83 116 9.0 29.0 0.00 0.00 0.00 31 1008.2
20260505182045 83 194 12.0 29.0 0.00 0.00 0.00 31 1008.4
20260505181545 83 153 17.0 32.0 0.00 0.00 0.00 32 1008.4
20260505181045 83 164 13.0 27.0 0.00 0.00 0.00 33 1008.4
20260505180543 83 223 12.0 27.0 0.00 0.00 0.00 33 1008.4
20260505180045 83 266 14.0 27.0 0.00 0.00 0.00 33 1008.4
20260505175541 83 137 12.0 24.0 0.00 0.00 0.00 37 1008.5
20260505175040 82 178 12.0 24.0 0.00 0.00 0.00 39 1008.5